VK3TI-1 Weather Reports


Display with metric or nautical units.
time (UTC)temp
F
wind
direction
speed
MPH
gust
MPH
rain 1hr
in
rain 24hr
in
rain mn
in
humidity
%
barometer
mb
20260505113053 56 355 0.0 0.0 0.00 0.00 0.00 71 1023.2
20260505111549 56 355 0.0 0.0 0.00 0.00 0.00 71 1023.2
20260505101550 56 10 0.0 0.0 0.00 0.00 0.00 72 1023.0
20260505100045 57 335 0.0 0.0 0.00 0.00 0.00 73 1023.1
20260505094544 57 325 0.0 0.0 0.00 0.00 0.00 73 1023.0
20260505093044 57 301 0.0 0.0 0.00 0.00 0.00 72 1023.0
20260505091543 57 301 0.0 0.0 0.00 0.00 0.00 72 1023.0
20260505090045 57 301 0.0 0.0 0.00 0.00 0.00 72 1022.9
20260505084551 57 301 0.0 0.0 0.00 0.00 0.00 71 1022.9
20260505083051 58 301 0.0 0.0 0.00 0.00 0.00 71 1022.7
20260505081538 58 301 0.0 0.0 0.00 0.00 0.00 71 1022.5
20260505080043 58 293 0.0 1.0 0.00 0.00 0.00 71 1022.3
20260505074533 58 309 0.0 0.0 0.00 0.00 0.00 70 1022.2
20260505073035 58 317 0.0 0.0 0.00 0.00 0.00 69 1022.1
20260505071537 58 284 0.0 7.0 0.00 0.00 0.00 69 1022.0
20260505070025 58 270 0.0 3.0 0.00 0.00 0.00 68 1021.9
20260505064522 58 244 0.0 4.0 0.00 0.00 0.00 67 1021.9
20260505063018 59 286 0.0 6.0 0.00 0.00 0.00 65 1021.7
20260505061517 59 286 1.0 5.0 0.00 0.00 0.00 63 1021.7
20260505060015 59 329 1.0 5.0 0.00 0.00 0.00 63 1021.6
20260505054514 59 280 2.0 7.0 0.00 0.00 0.00 62 1021.4
20260505053011 59 263 1.0 6.0 0.00 0.00 0.00 64 1021.3
20260505051511 59 278 1.0 7.0 0.00 0.00 0.00 64 1021.1
20260505041503 58 253 3.0 9.0 0.00 0.00 0.00 67 1020.8
20260505040001 59 294 1.0 7.0 0.00 0.00 0.00 65 1020.7
20260505034502 58 300 0.0 8.0 0.00 0.00 0.00 65 1020.7
20260505033002 58 285 0.0 12.0 0.00 0.00 0.00 65 1020.7
20260505031604 58 274 1.0 9.0 0.00 0.00 0.00 65 1020.7
20260505024559 57 251 1.0 10.0 0.00 0.00 0.00 68 1020.8
20260505023058 58 256 4.0 9.0 0.00 0.00 0.00 66 1020.8
20260505021558 59 259 2.0 11.0 0.00 0.00 0.00 65 1020.9
20260505020055 58 296 3.0 12.0 0.00 0.00 0.00 66 1020.9
20260505014603 57 252 3.0 13.0 0.00 0.00 0.00 67 1021.1
20260505013049 57 276 3.0 15.0 0.00 0.00 0.00 68 1021.1
20260505011551 57 245 4.0 12.0 0.00 0.00 0.00 70 1021.2
20260505010046 57 292 6.0 17.0 0.00 0.00 0.00 71 1021.1
20260505004544 57 285 1.0 14.0 0.00 0.00 0.00 72 1021.1
20260505003042 57 257 3.0 17.0 0.00 0.00 0.00 73 1020.9
20260505001546 57 304 5.0 16.0 0.00 0.00 0.00 73 1020.6
20260505000047 56 263 3.0 14.0 0.00 0.00 0.00 74 1020.5
20260504234541 56 294 5.0 14.0 0.00 0.00 0.00 75 1020.4
20260504233040 56 214 5.0 11.0 0.00 0.00 0.00 77 1020.4
20260504231535 56 261 3.0 10.0 0.00 0.00 0.00 78 1020.3
20260504230033 55 269 2.0 12.0 0.00 0.00 0.00 79 1020.1
20260504224537 55 267 3.0 17.0 0.00 0.00 0.00 79 1020.0
20260504223030 55 257 1.0 10.0 0.00 0.00 0.00 81 1019.7
20260504221526 54 332 0.0 8.0 0.00 0.00 0.00 82 1019.4
20260504220024 55 290 3.0 9.0 0.00 0.00 0.00 83 1019.2
20260504214526 54 300 1.0 8.0 0.00 0.00 0.00 83 1018.9
20260504213021 54 284 0.0 10.0 0.00 0.00 0.00 83 1018.6
20260504211517 54 328 2.0 11.0 0.00 0.00 0.00 83 1018.3
20260504210016 54 300 0.0 9.0 0.00 0.00 0.00 83 1018.1
20260504204519 54 275 3.0 11.0 0.00 0.00 0.00 83 1018.0
20260504203007 55 287 2.0 10.0 0.00 0.00 0.00 84 1017.7
20260504201504 55 300 3.0 10.0 0.00 0.00 0.00 83 1017.4
20260504200101 55 294 1.0 8.0 0.00 0.00 0.00 82 1017.2
20260504200002 55 288 1.0 8.0 0.00 0.00 0.00 82 1017.1
20260504194559 55 292 3.0 11.0 0.00 0.00 0.00 81 1017.0
20260504193057 55 275 3.0 11.0 0.00 0.00 0.00 81 1016.9
20260504191600 55 306 4.0 12.0 0.00 0.00 0.00 80 1016.9
20260504190054 55 297 1.0 11.0 0.00 0.00 0.00 80 1016.6
20260504184550 55 318 2.0 11.0 0.00 0.00 0.00 79 1016.5
20260504183046 55 307 0.0 8.0 0.00 0.00 0.00 79 1016.2
20260504181545 55 313 0.0 9.0 0.00 0.00 0.00 79 1016.1
20260504180043 56 295 4.0 10.0 0.00 0.00 0.00 79 1015.9
20260504174541 56 231 0.0 10.0 0.00 0.00 0.00 78 1015.8
20260504173041 56 315 1.0 9.0 0.00 0.00 0.00 77 1015.8
20260504171538 56 293 0.0 10.0 0.00 0.00 0.00 77 1015.6